Weather Service Report


440 
ASUS43 KBIS 210620
RWRND 

NORTH DAKOTA REGIONAL WEATHER ROUNDUP
NATIONAL WEATHER SERVICE BISMARCK ND
1200 AM CST SUN DEC 21 2014

NOTE: "FAIR" INDICATES FEW OR NO CLOUDS BELOW 12,000 FEET WITH NO
SIGNIFICANT WEATHER AND/OR OBSTRUCTIONS TO VISIBILITY.


NDZ001>003-009>011-017-210700-
NORTHWEST NORTH DAKOTA
  
CITY           SKY/WX    TMP DP  RH WIND       PRES   REMARKS
WILLISTON      CLEAR     22  19  89 CALM      29.71F                  
6HR MIN TEMP:  19; 6HR MAX TEMP:  34;                                

MINOT          PTCLDY    27  23  85 SW8       29.70S WCI  19          
MINOT AFB      PTCLDY    26  26 100 SW6       29.70S WCI  20          
$$
 
NDZ018>021-031>035-040>046-210700-
SOUTHWEST NORTH DAKOTA
  
CITY           SKY/WX    TMP DP  RH WIND       PRES   REMARKS
BISMARCK       CLEAR     19  18  95 CALM      29.78F                  
6HR MIN TEMP:  14; 6HR MAX TEMP:  25;                                

DICKINSON      PTCLDY    28  20  71 CALM      29.71F                  
GARRISON         N/A     24  22  91 CALM      29.73S                  
6HR MIN TEMP:  24; 6HR MAX TEMP:  30;                                

HETTINGER ARPT PTCLDY    25  21  85 CALM      29.76F                  
$$
 
NDZ004>008-012>016-024-026-027-054-210700-
NORTHEAST NORTH DAKOTA
  
CITY           SKY/WX    TMP DP  RH WIND       PRES   REMARKS
GRAND FORKS    CLOUDY    31  29  92 S16       29.83F WCI  20          
GRND FRKS AFB  CLOUDY    32  32 100 SW12      29.82F                  
DEVILS LAKE    MOCLDY    27  21  80 S7        29.74F WCI  19          
$$
 
NDZ022-023-025-028>030-036>039-047>053-210700-
SOUTHEAST NORTH DAKOTA
  
CITY           SKY/WX    TMP DP  RH WIND       PRES   REMARKS
FARGO          CLOUDY    32  29  88 S15       29.88F FOG              
6HR MIN TEMP:  32; 6HR MAX TEMP:  33;                                

JAMESTOWN      PTCLDY    24  22  91 S15       29.79F WCI  11          
$$ 



441 
ASUS43 KBIS 210620
RWRBIS

NWR BROADCAST TEXT
NATIONAL WEATHER SERVICE BISMARCK ND
1200 AM CST SUN DEC 21 2014

NOTE: "FAIR" INDICATES FEW OR NO CLOUDS BELOW 12,000 FEET WITH NO
SIGNIFICANT WEATHER AND/OR OBSTRUCTIONS TO VISIBILITY.

  
CITY           SKY/WX    TMP DP  RH WIND       PRES   REMARKS
WILLISTON      CLEAR     22  19  89 CALM      29.71F                  
MINOT          PTCLDY    27  23  85 SW8       29.70S WCI  19          
MINOT AFB      PTCLDY    26  26 100 SW6       29.70S WCI  20          
BISMARCK       CLEAR     19  18  95 CALM      29.78F                  
DICKINSON      PTCLDY    28  20  71 CALM      29.71F                  
GARRISON         N/A     24  22  91 CALM      29.73S                  
HETTINGER ARPT PTCLDY    25  21  85 CALM      29.76F                  
JAMESTOWN      PTCLDY    24  22  91 S15       29.79F WCI  11          
BEACH          FAIR      23  21  93 S6        29.72F WCI  16          
CARRINGTON     CLOUDY    23  23 100 MISG      29.77S                  
CROSBY         FAIR      23  23 100 SW12      29.68F WCI  12          
HARVEY         FAIR      23  23 100 S7        29.74F WCI  15          
HAZEN          FAIR      28  25  86 SW9       29.75F WCI  20          
LINTON         FAIR      21  21 100 SE6       29.79F WCI  14          
MANDAN         FAIR      25  23  93 S9        29.77F WCI  15          
OAKES            N/A     28  28 100 S16G24    29.84F WCI  17          
RUGBY          MOCLDY    25  25 100 SE5       29.72F WCI  19          
STANLEY        FAIR      25  25 100 SW7       29.69F WCI  17          
TIOGA          FAIR      25  25 100 W7        29.72S WCI  17          
WATFORD CITY   FAIR      23  21  93 SW6       29.69F WCI  16          
$$
  
CITY           SKY/WX    TMP DP  RH WIND       PRES   REMARKS
GRAND FORKS    CLOUDY    31  29  92 S16       29.83F WCI  20          
GRAND FORKS AF CLOUDY    32  32 100 SW12      29.82F                  
DEVILS LAKE    MOCLDY    27  21  80 S7        29.74F WCI  19          
FARGO          CLOUDY    32  29  88 S15       29.88F FOG              
CANDO          FOG       27  25  93 SE7       29.75F VSB 3/4 WCI  19  
CAVALIER       CLOUDY    28  28 100 S10G16    29.80F FOG     WCI  19  
GWINNER        CLOUDY    32  32 100 MISG      29.86F                  
LANGDON        FOG       27  27 100 N5        29.74F VSB 1/2          
ROLLA          FOG       25  25 100 MISG      29.71F VSB 3/4          
WALHALLA         N/A     28  28 100 S7        29.79F FOG              
$$
  
CITY           SKY/WX    TMP DP  RH WIND       PRES   REMARKS
ABERDEEN       CLOUDY    30  28  92 S14       29.88F WCI  19          
MOBRIDGE       MOCLDY    27  24  89 SE8       29.78F WCI  19          
BUFFALO          N/A     32  24  72 SE6       29.68F                  
RAPID CITY     MOCLDY    32  25  75 SE6       29.77F                  
GLASGOW        CLEAR     24  19  81 E12       29.64F WCI  13          
SIDNEY         CLEAR     27  21  80 CALM      29.72F                  
WOLF POINT     CLEAR     18  14  84 NE3       29.68F                  
GLENDIVE       PTCLDY    25  19  80 S8        29.70F WCI  16          
MILES CITY     CLEAR     28  22  78 S8        29.69F WCI  20          
BAKER          CLEAR     25  22  88 CALM      29.72F                  
$$
  
CITY           SKY/WX    TMP DP  RH WIND       PRES   REMARKS
BILLINGS       MOCLDY    32  21  64 SW16      29.69F                  
GREAT FALLS    CLOUDY    39  27  62 S14       29.53F                  
REGINA         FOG       18  18 100 SE5       29.63F VSB 1/8 WCI  11  
ESTEVAN        CLEAR     19  18  93 SW7       29.66F WCI  10          
$$


Return to Home page


Western Regional Climate Center, wrcc@dri.edu